Flag for U.S.A. Weather past 2 weeks in Butte, Montana, U.S.A.

Now
73 °F

Sunny.


Feels Like: 75 °F
Forecast: 37 / 53 °F
Wind: 14 mph from West

Location: Mooney Airport

Current Time: Sep 2, 2014 at 6:15:08 PM

Latest Report: Sep 2, 2014 at 5:53 PM


Visibility: 10 mi

Pressure: 29.71 "Hg

Humidity: 18%

Dew point: 27 °F

Location of ButteLocation

Historic Weather in Butte — Graph

°F

Butte temperature yesterday

Maximum temperature yesterday: 66 °F (at 5:53 PM)
Minimum temperature yesterday: 38 °F (at 7:53 AM)
Average temperature yesterday: 52 °F

Past Weeks' High & Low Weather Summary

 TemperatureHumidityPressure
High81 °F (Aug 28, 3:53 PM)97% (Aug 31, 2:53 AM)30.20 "Hg (Aug 31, 2:53 AM)
Low36 °F (Sep 2, 5:53 AM)17% (Sep 2, 4:53 PM)29.71 "Hg (Aug 19, 3:53 PM)
Average56 °F64%29.98 "Hg
* Reported Aug 18 4:53 PM — Sep 2 4:53 PM, Butte, Weather by CustomWeather, © 2014

Note: Actual official high and low records may vary slightly from our data, if they occured in-between our weather recording intervals... More about our weather records

Advertising

Butte weather history for previous 24 hours

 ConditionsComfort  
Time TempWeatherWind HumidityBarometerVisibility
4:53 PM
Sep 2
74 °FSunny.15 mph17%29.72 "Hg10 mi
3:53 PM73 °FSunny.8 mph18%29.74 "Hg10 mi
2:53 PM73 °FSunny.8 mph19%29.77 "Hg10 mi
1:53 PM69 °FSunny.7 mph21%29.80 "Hg10 mi
12:53 PM67 °FSunny.N/A25%29.83 "Hg10 mi
11:53 AM65 °FSunny.10 mph27%29.86 "Hg10 mi
10:53 AM61 °FSunny.No wind39%29.90 "Hg10 mi
9:53 AM51 °FSunny.No wind61%29.94 "Hg10 mi
8:53 AM43 °FSunny.No wind79%29.96 "Hg10 mi
7:53 AM37 °FSunny.5 mph89%29.97 "Hg10 mi
6:53 AM36 °FClear.No wind89%29.97 "Hg10 mi
5:53 AM36 °FClear.3 mph89%29.96 "Hg10 mi
4:53 AM37 °FClear.3 mph86%29.97 "Hg10 mi
3:53 AM39 °FClear.3 mph82%29.98 "Hg10 mi
2:53 AM40 °FClear.3 mph83%29.98 "Hg10 mi
1:53 AM42 °FClear.6 mph79%29.99 "Hg10 mi
12:53 AM42 °FClear.5 mph79%30.00 "Hg10 mi
11:53 PM
Sep 1
44 °FClear.5 mph76%30.01 "Hg10 mi
10:53 PM46 °FClear.5 mph71%30.00 "Hg10 mi
9:53 PM52 °FClear.No wind55%29.98 "Hg10 mi
8:53 PM58 °FSunny.5 mph39%29.97 "Hg10 mi
7:53 PM62 °FSunny.8 mph34%29.97 "Hg10 mi
6:53 PM64 °FSunny.15 mph32%29.96 "Hg10 mi
Weather by CustomWeather, © 2014

See weather overviewHow to use our weather pages